• Processing (Info)

  • MPEC 2023-F138 : 2023 FY3

    The following Minor Planet Electronic Circular may be linked-to from your own Web pages, but must not otherwise be redistributed electronically.

    A form allowing access to any MPEC is at the bottom of this page.


    Read MPEC 2023-F137 Read MPEC 2023-F139


    M.P.E.C. 2023-F138                               Issued 2023 March 25, 23:16 UT
    
         The Minor Planet Electronic Circulars contain information on unusual
             minor planets, routine data on comets and natural satellites,
             and occasional editorial announcements.  They are published
        on behalf of Division F of the International Astronomical Union by the
              Minor Planet Center, Smithsonian Astrophysical Observatory,
                              Cambridge, MA 02138, U.S.A.
    			  
                 Prepared using the Tamkin Foundation Computer Network
    
                                  MPC@CFA.HARVARD.EDU
                URL https://www.minorplanetcenter.net/    ISSN 1523-6714
    
                                    2023 FY3                                 
    
    
    Observations:
         K23F03Y*1C2023 03 25.22127709 32 01.219+22 21 13.14         18.20GVEF138703
         K23F03Y 1C2023 03 25.22665809 32 10.453+22 18 45.32         18.44GVEF138703
         K23F03Y 1C2023 03 25.23202309 32 19.705+22 16 16.28         18.46GVEF138703
         K23F03Y 1C2023 03 25.23737509 32 28.925+22 13 47.64         18.29GVEF138703
         K23F03Y mC2023 03 25.27171809 33 28.969+21 57 36.90         19.24GVEF138V06
         K23F03Y mC2023 03 25.27183909 33 29.174+21 57 33.70         19.05GVEF138V06
         K23F03Y mC2023 03 25.27196209 33 29.430+21 57 29.52               VEF138V06
         K23F03Y mC2023 03 25.27208309 33 29.628+21 57 26.50         18.92GVEF138V06
         K23F03Y mC2023 03 25.34272709 35 41.881+21 22 47.64         18.68GVEF138V06
         K23F03Y mC2023 03 25.34285109 35 42.104+21 22 43.97         19.00GVEF138V06
         K23F03Y mC2023 03 25.34297409 35 42.364+21 22 40.22         18.26GVEF138V06
         K23F03Y 1C2023 03 25.81875 09 57 08.10 +17 44 30.6          18.9 VXEF138033
         K23F03Y 1C2023 03 25.81904 09 57 08.56 +17 44 23.2          19.3 VXEF138033
         K23F03Y KB2023 03 25.82409 09 57 32.91 +17 45 51.2          18.0 GXEF138K19
         K23F03Y KB2023 03 25.82775 09 57 38.88 +17 44 19.5          17.9 GXEF138K19
         K23F03Y KB2023 03 25.83143 09 57 44.90 +17 42 46.7          17.9 GXEF138K19
         K23F03Y KC2023 03 25.84423 09 57 55.76 +17 37 31.6          18.3 GVEF138104
         K23F03Y KC2023 03 25.84908 09 58 03.50 +17 35 27.0          18.5 GVEF138104
         K23F03Y KC2023 03 25.84908 09 58 32.96 +17 36 53.7          18.0 GXEF138Z41
         K23F03Y KC2023 03 25.85250 09 58 38.43 +17 35 28.1          17.9 GXEF138Z41
         K23F03Y KC2023 03 25.85387 09 58 11.12 +17 33 24.0          18.8 GVEF138104
         K23F03Y KC2023 03 25.86277 09 58 54.73 +17 31 10.1          19.0 GXEF138Z41
         K23F03Y KC2023 03 25.86284 09 58 54.85 +17 31 08.7          18.2 GXEF138Z41
         K23F03Y KC2023 03 25.87091009 58 32.65 +17 24 56.8          18.1 GXEF138595
         K23F03Y KC2023 03 25.87782609 58 43.68 +17 21 54.7          18.4 GXEF138595
         K23F03Y KC2023 03 25.88474609 58 54.71 +17 18 51.8          18.0 GXEF138595
         K23F03Y KC2023 03 25.93313 10 00 22.483+16 58 20.78         18.3 VqEF138C77
         K23F03Y KC2023 03 25.93313510 00 16.712+16 58 23.04         18.7 GVEF138K63
         K23F03Y KC2023 03 25.93587510 00 21.074+16 57 08.79         18.1 GVEF138K63
         K23F03Y KC2023 03 25.93625 10 00 27.468+16 56 56.69         18.3 VqEF138C77
         K23F03Y KC2023 03 25.93956 10 00 32.719+16 55 27.05         18.3 VqEF138C77
    
    Observer details:
    033 Karl Schwarzschild Observatory, Tautenburg.  Observers S. Melnikov, C.
        Hoegner, F. Ludwig, B. Stecklum.  Measurer B. Stecklum.  1.34-m f/3
        Schmidt + CCD.
    104 San Marcello Pistoiese.  Observers P. Bacci, M. Maestripieri.  Measurer P.
        Bacci.  0.60-m f/4 Newton + CCD.
    595 Farra d'Isonzo.  Observers S. Aschi, E. Pettarin.  Measurer E. Pettarin.
        0.61-m f/4.5 reflector + CCD.
    703 Catalina Sky Survey.  Observer K. W. Wierzchos.  Measurers E. J.
        Christensen, D. Fay, J. B. Fazekas, D. C. Fuls, A. R. Gibbs, A. D. Grauer,
        H. Groeller, J. K. Hogan, R. A. Kowalski, S. M. Larson, G. J. Leonard, D.
        Rankin, R. L. Seaman, A. Serrano, F. C. Shelly, K. W. Wierzchos.  0.68-m
        Schmidt + 10K CCD.
    C77 Bernezzo Observatory.  Observer A. Mantero.  0.25-m f/4.0 reflector + CCD.
    K19 PASTIS Observatory, Banon.  Observer C. Demeautis.  0.28-m f/2.2 reflector
        + CMO.
    K63 G. Pascoli Observatory, Castelvecchio Pascoli.  Observer R. Bacci.  0.41-m
        f/3.2 Reflector + CCD.
    V06 Catalina Sky Survey-Kuiper.  Observer A. Serrano.  Measurers E. J.
        Christensen, D. Fay, J. B. Fazekas, D. C. Fuls, A. R. Gibbs, A. D. Grauer,
        H. Groeller, J. K. Hogan, R. A. Kowalski, S. M. Larson, G. J. Leonard, D.
        Rankin, R. L. Seaman, A. Serrano, F. C. Shelly, K. W. Wierzchos.  1.55-m
        reflector + 1K CCD.
    Z41 Irydeo Observatory, Camarma de Esteruelas.  Observer F. Calvo.  0.28-m
        f/2.2 reflector + CCD.
    
    Orbital elements:
    2023 FY3                                                 Earth MOID = 0.0017 AU
    Epoch 2023 Feb. 25.0 TT = JDT 2460000.5                 Veres                   
    M  58.65174              (2000.0)            P               Q                  
    n   0.98886631     Peri.   65.78006     -0.03739054     -0.99929893             
    a   0.9978019      Node    26.36297     +0.91528566     -0.03500790             
    e   0.0434998      Incl.    0.24448     +0.40106621     -0.01326988             
    P   1.00           H   29.14          G   0.15           U   6                  
    Residuals in seconds of arc
    230325 703  0.2-  0.5+    230325 V06  0.6+  0.3-    230325 104  0.2+  0.6+
    230325 703  0.2-  0.5+    230325 033  0.2+  0.1-    230325 Z41  0.2+  0.2-
    230325 703  0.2+  0.4-    230325 033  0.3-  0.1-    230325 595  0.0   0.1+
    230325 703  0.1+  0.5-    230325 K19  0.4+  0.2-    230325 595  0.1-  0.1+
    230325 V06  0.2+  0.3-    230325 K19  0.4-  0.0     230325 595  0.1-  0.1+
    230325 V06  0.0   0.0     230325 K19  0.5-  0.2-    230325 C77  0.2-  0.1+
    230325 V06  0.6+  0.7-    230325 104  0.1-  0.2-    230325 K63  0.1-  0.3-
    230325 V06  0.3+  0.2-    230325 104  0.0   0.0     230325 K63  0.2-  0.3-
    230325 V06  0.7+  0.3-    230325 Z41  0.2+  0.2-    230325 C77  0.2+  0.3+
    230325 V06  0.4+  0.3-    230325 Z41  0.2+  0.3-    230325 C77  0.1+  0.1+
    
    Ephemeris:
    2023 FY3                 a,e,i = 1.00, 0.04, 0                   q = 0.9544
    Date    TT    R. A. (2000) Decl.     Delta      r    Elong.  Phase     V
    2023 02 23    00 30 48.2 +14 45 30   0.01839 0.9753    40.3   139.0    27.1
    ...
    2023 03 10    01 32 53.4 +26 05 50   0.0095490.9861    44.5   135.1    25.3
    ...
    2023 03 18    03 33 54.0 +38 57 24   0.0053540.9928    65.4   114.3    22.2
    ...
    2023 03 24    08 33 47.7 +31 05 45   0.0036930.9986   119.5    60.3    19.1
    2023 03 25    09 22 37.1 +24 05 44   0.0037720.9995   131.2    48.6    18.8
    2023 03 26    10 03 20.5 +16 47 07   0.0039681.0004   142.0    37.8    18.7
    ...
    2023 04 01    12 17 05.4 -12 02 21   0.0066101.0055   170.5     9.5    18.9
    ...
    2023 04 09    13 23 25.3 -23 59 51   0.01130 1.0121   162.9    16.9    20.3
    ...
    2023 04 24    14 04 48.6 -28 41 09   0.02108 1.0258   163.9    15.8    21.7
    
    M. P. C. Staff               (C) Copyright 2023 MPC           M.P.E.C. 2023-F138
    


    Read MPEC 2023-F137 Read MPEC 2023-F139


    MPEC number:

    Enter an MPEC number in one of the following forms:

    • 1997-B01 (the full form)
    • J97B01 (the packed version of the full form)
    • B01 (the abbreviated form)